#timestamp,LO_Frequency,Hit 
1501884015.1,286047112.0,N
1501884035.9,286047111.0,N
1501884055.7,286047112.4,N
1501884075.5,286047112.6,N
1501884095.4,286047112.4,N
1501884115.2,286047110.6,N
1501884135.0,286047111.9,N
1501884135.9,286047111.9,N
1501884155.8,286047113.9,N
1501884175.6,286047114.5,N
1501884195.4,286047114.4,N
1501884215.3,286047114.3,N
1501884235.1,286047112.5,N
1501884236.0,286047112.5,N
1501884255.8,286047113.5,N
1501884275.6,286047115.8,N
1501884295.5,286047116.4,N
1501884315.3,286047113.5,N
1501884335.1,286047114.7,N
1501884355.9,286047116.0,N
1501884375.7,286047111.9,N
1501884395.5,286047113.6,N
1501884415.4,286047112.4,N
1501884435.2,286047114.3,N
1501884455.0,286047110.2,N
1501884455.9,286047110.2,N
1501884475.8,286047111.9,N
1501884495.6,286047114.1,N
1501884515.4,286047114.3,N
1501884535.3,286047113.6,N
1501884555.1,286047113.9,N
1501884556.0,286047113.9,N
1501884575.8,286047116.4,N
1501884595.7,286047114.2,N
1501884615.5,286047114.2,N
1501884635.3,286047113.7,N
1501884655.1,286047114.8,N
1501884675.9,286047115.5,N
1501884695.7,286047114.0,N
1501884715.5,286047114.5,N
1501884735.4,286047114.5,N
1501884755.2,286047113.6,N
1501884775.0,286047114.9,N
1501884775.9,286047114.9,N
1501884795.8,286047113.6,N
1501884815.6,286047111.8,N
1501884835.4,286047113.1,N
1501884855.3,286047116.4,N
1501884875.1,286047113.7,N
1501884876.0,286047113.7,N
1501884895.8,286047114.6,N
1501884915.7,286047111.9,N
1501884935.5,286047112.9,N
1501884955.3,286047110.7,N
1501884975.1,286047112.0,N
1501884995.9,286047113.8,N
1501885015.7,286047114.8,N
1501885035.5,286047113.3,N
1501885055.4,286047113.6,N
1501885075.2,286047114.0,N
1501885095.0,286047113.8,N
1501885095.9,286047113.8,N
1501885115.8,286047114.8,N
1501885135.6,286047113.5,N
1501885155.4,286047113.5,N
1501885175.3,286047113.4,N
1501885195.1,286047114.6,N
1501885196.0,286047114.6,N
1501885215.8,286047116.1,N
1501885235.7,286047114.2,N
1501885255.5,286047113.7,N
1501885275.3,286047113.9,N
1501885295.1,286047112.2,N
1501885315.9,286047114.2,N
1501885335.7,286047115.0,N
1501885355.5,286047116.4,N
1501885375.4,286047116.0,N
1501885395.2,286047113.7,N
1501885415.0,286047116.8,N
1501885415.9,286047116.8,N
1501885435.8,286047115.6,N
1501885455.6,286047115.7,N
1501885475.4,286047115.1,N
1501885495.3,286047116.1,N
1501885515.1,286047115.2,N
1501885516.0,286047115.2,N
1501885535.8,286047116.3,N
1501885555.7,286047115.9,N
1501885575.5,286047115.8,N
1501885595.3,286047113.3,N
1501885615.1,286047113.7,N
1501885635.9,286047114.6,N
1501885655.7,286047113.6,N
1501885675.5,286047113.6,N
1501885695.4,286047116.4,N
1501885715.2,286047114.3,N
1501885735.0,286047114.3,N
1501885735.9,286047114.3,N
1501885755.8,286047116.1,N
1501885775.6,286047113.9,N
1501885795.4,286047114.7,N
1501885815.3,286047116.4,N
1501885835.1,286047114.1,N
1501885836.0,286047114.1,N
1501885855.8,286047116.3,N
1501885875.7,286047116.0,N
1501885895.5,286047116.3,N
1501885915.3,286047115.6,N
1501885935.1,286047113.3,N
1501885955.9,286047115.5,N
1501885975.7,286047113.7,N
1501885995.5,286047115.2,N
1501886015.4,286047116.1,N
1501886035.2,286047116.1,N
1501886055.0,286047115.3,N
1501886055.9,286047115.3,N
1501886075.8,286047115.4,N
1501886095.6,286047115.0,N
1501886115.4,286047117.8,N
1501886135.3,286047115.0,N
1501886155.1,286047113.7,N
1501886156.0,286047113.7,N
1501886175.8,286047116.2,N
1501886195.7,286047115.1,N
1501886215.5,286047117.4,N
1501886235.3,286047115.9,N
1501886255.1,286047117.7,N
1501886275.9,286047116.6,N
1501886295.7,286047119.6,N
1501886315.5,286047116.5,N
1501886335.4,286047116.9,N
1501886355.2,286047117.4,N
1501886375.0,286047117.8,N
1501886375.9,286047117.8,N
1501886395.8,286047116.2,N
1501886415.6,286047116.0,N
1501886435.4,286047115.5,N
1501886455.3,286047116.3,N
1501886475.1,286047115.0,N
1501886476.0,286047115.0,N
1501886495.8,286047115.7,N
1501886515.7,286047117.8,N
1501886535.5,286047117.3,N
1501886555.3,286047115.0,N
1501886575.1,286047117.6,N
1501886595.9,286047116.5,N
1501886615.7,286047117.9,N
1501886635.5,286047115.1,N
1501886655.4,286047117.5,N
1501886675.2,286047117.7,N
1501886695.0,286047115.3,N
1501886695.9,286047115.3,N
1501886715.8,286047115.6,N
1501886735.6,286047116.6,N
1501886755.4,286047121.1,N
1501886775.3,286047118.2,N
1501886795.1,286047120.6,N
1501886796.0,286047120.6,N
1501886815.8,286047116.8,N
1501886835.7,286047116.6,N
1501886855.5,286047119.1,N
1501886875.3,286047118.1,N
1501886895.1,286047118.4,N
1501886915.9,286047118.3,N
1501886935.7,286047119.0,N
1501886955.5,286047119.1,N
1501886975.4,286047120.7,N
1501886995.2,286047118.2,N
1501887015.0,286047118.5,N
1501887015.9,286047118.5,N
1501887035.8,286047122.7,N
1501887055.6,286047122.7,N
1501887075.4,286047120.1,N
1501887095.3,286047122.1,N
1501887115.1,286047123.7,N
1501887116.0,286047123.7,N
1501887135.8,286047121.5,N
1501887155.7,286047119.9,N
1501887175.5,286047118.2,N
1501887195.3,286047120.3,N
1501887215.1,286047120.4,N
1501887235.9,286047118.2,N
1501887255.7,286047121.6,N
1501887275.5,286047124.1,N
1501887295.4,286047124.3,N
1501887315.2,286047122.4,N
1501887335.0,286047119.9,N
1501887335.9,286047119.9,N
1501887355.8,286047118.5,N
1501887375.6,286047119.0,N
1501887395.4,286047117.3,N
1501887415.3,286047119.2,N
1501887435.1,286047117.4,N
1501887436.0,286047117.4,N
1501887455.8,286047117.9,N
1501887475.7,286047115.9,N
1501887495.5,286047114.9,N
1501887515.3,286047116.2,N
1501887535.1,286047115.6,N
1501887555.9,286047117.9,N
1501887575.7,286047115.0,N
1501887595.5,286047115.0,N
